sat.trackr.live / text

‹ back to catalog

STARLINK-11254 [DTC]

NORAD 60731 · 2024-152M

PAYLOAD ACTIVE UNKNOWN

§ Identity

Operator
Country
US
Launch date
2024-08-28
Launch site
AFETR
Launch vehicle
Mass (kg)
RCS (m²)

Purposes: comms

External: N2YO · Heavens-Above · Gunter

§ Orbital elements

Epoch: 2026-05-25T02:54:10.144800Z

Period
91.74 min
Inclination
53.1597°
Eccentricity
0.0000969
Mean motion
15.69706761 rev/d
Perigee alt
359.1 km
Apogee alt
360.4 km
Semi-major
6,737.9 km
B*
5.2184e-6
RAAN
99.1698°
Arg perigee
83.6861°
Mean anomaly
276.4268°
Rev number
10,085

§ Raw data

STARLINK-11254 [DTC]1 60731U 24152M   26145.12095075  .00000044  00000+0  52184-5 0  99902 60731  53.1597  99.1698 0000969  83.6861 276.4268 15.69706761100854

JSON: /api/v1/satellites/60731 · /tle

For live sub-satellite position, see the globe view (requires WebGL).

§ Visibility from observer

Set your observer location to see the next 7 days of passes ≥ 10°. The values pass through the URL so the page stays shareable.

No JS? Fill the form by hand. The geolocation button needs JavaScript.